Regional Weather Roundup
Issued by NWS Newport/Morehead, NC

Current Version | Previous Version | Graphics & Text | Print | Product List | Glossary On
Versions: 1 2 3 4 5 6 7 8 9 10 11 12 13 14 15 16 17 18 19 20 21 22 23 24 25 26 27 28 29 30 31 32 33 34 35 36 37 38 39 40 41 42 43 44 45 46 47 48 49 50
000 ASUS42 KMHX 250925 RWRMHX WEATHER ROUNDUP FOR EASTERN NORTH CAROLINA NATIONAL WEATHER SERVICE NEWPORT/MOREHEAD CITY NC 500 AM EDT TUE APR 25 2017 NOTE: "FAIR" INDICATES FEW OR NO CLOUDS BELOW 12,000 FEET WITH NO SIGNIFICANT WEATHER AND/OR OBSTRUCTIONS TO VISIBILITY NCZ015>017-031-032-045>047-102-103-251000- NORTH COAST CITY SKY/WX TMP DP RH WIND PRES REMARKS EDENTON N/A N/A N/A N/A MISG N/A ELIZABETH CITY LGT RAIN 64 63 96 E17G30 29.61F KITTY HAWK CLOUDY 63 63 100 E20G31 29.55F FOG MANTEO CLOUDY 65 63 92 E24G35 29.55F $$ NCZ045>047-081-094-103-104-251000- CENTRAL COAST CITY SKY/WX TMP DP RH WIND PRES REMARKS FRISCO CLOUDY 67 63 87 SW28G45 29.51R FOG $$ NCZ095-097-098-100-101-251000- SOUTHERN COAST CITY SKY/WX TMP DP RH WIND PRES REMARKS BEAUFORT LGT RAIN 63 63 100 NW7 29.55R CEDAR ISLAND NOT AVBL JACKSONVILLE CLOUDY 64 64 100 NW3 29.55S PINEY ISLAND CLOUDY N/A N/A N/A W15G28 29.51S WILMINGTON FOG 63 63 100 CALM 29.56R VSB 3/4 $$ NCZ011>013-027>030-043-044-078>080-089-090>093-098-251000- COASTAL PLAIN CITY SKY/WX TMP DP RH WIND PRES REMARKS AHOSKIE LGT RAIN 61 60 97 NE7 29.62S CLINTON CLOUDY 62 62 100 CALM 29.57S FOG ELIZABETHTOWN FOG 61 61 100 CALM 29.57S VSB 1 GOLDSBORO LGT RAIN 64 64 100 SE6 29.58R GREENVILLE HVY RAIN 61 61 100 CALM 29.64S HAVELOCK NOT AVBL KENANSVILLE HVY RAIN 64 63 94 CALM 29.57R FOG KINSTON RAIN 61 60 97 N5 29.59R NEW BERN RAIN 62 62 100 N7 29.56S RICHLANDS LGT RAIN 63 63 100 W3 29.57R ROCKY MOUNT RAIN 62 62 100 E7 29.60R FOG WASHINGTON HVY RAIN 61 60 97 W7 29.59R WHITEVILLE FOG 61 60 97 CALM 29.56S VSB 1 $$ AMZ130-135-150-152-154-156-158-170-250-252-270-ANZ085-086-088-633-658-670-251000- MARINE OBSERVATIONS STATION/POSITION TIME TEMP WIND PRES WAVE SWELL AIR SEA DIR/SP/G HT/PER HT/PER (UTC) (F) (DEG/KT/KT) (MB) (FT/S) (FT/S) CHESAPEAKE LIGHT NOT AVBL 64 E VA BEACH 0850 62 54 110/ 17/ 21 1005.1 13/10 11/10 DUCK 0900 62 60 70/ 23/ 30 1001.4 2 E DUCK 0900 59 N/A 9/10 3/11 OREGON INLET 0900 65 63 80/ 21/ 32 999.6 13E OREGON INLT 0848 57 N/A 16/10 10/25 HATTERAS CG 0900 67 67 220/ 29/ 39 998.2 DIAMOND BUOY 0850 74 78 220/ 29/ 41 998.2 17/11 13/11 CAPE LOOKOUT 0900 64 260/ 5/ 6 999.9 BEAUFORT LAB 0900 63 65 300/ 3/ 4 999.7 30 SE NEW RVR IN NOT AVBL 30 SE NEW RVR IN 0813 71 N/A 9/ 8 3/11 27 SE WRIGHTSVLE NOT AVBL 5 SE WRIGHTSVLE 0808 68 69 200/ 6/ 10 1000.8 225 S CAPE HAT 0850 74 75 180/ 21/ 27 1002.8 10/10 7/10 41 SE CHARLESTON 0900 67 72 260/ 14/ 17 1001.9 $$

USA.gov is the U.S. government's official web portal to all federal, state and local government web resources and services.